Погода в Орле

Беларусь     52°01′11″N   30°51′02″E
темп.,
°C
ветер,
м/с
пор.,
м/с
влажн.,
%
обл.,
%
осадки,
мм/ч
давл.,
гПа
погр.,
м
17 апреля, сб
сб1700:00+7вюв3593100 0.3 1014164
03:00+5вюв369611 0.3 1015182
06:00+3вюв25955 0.0 1017124
09:00+7вюв357812 0.0 1018535
12:00+10вюв4562100 0.0 10181347
15:00+12вюв2250100 0.1 10181533
18:00+12з1151100 0.1 10171336
21:00+8з367599 0.1 1017187
18 апреля, вс
вс1800:00+7зюз51181100 1.0 1015424
03:00+8з61385100 2.3 1013655
06:00+6с6992100 2.4 1012583
09:00+3ссв71294100 2.4 1013635
12:00+4св71294100 0.1 1015713
15:00+6св61187100 0.2 1017962
18:00+6св61187100 0.1 1017920
21:00+6св388953 0.1 1018430
19 апреля, пн
пн1900:00+3ссв349423 0.0 101877
03:00+4с2391100 0.0 1018111
06:00+5с3893100 0.0 1018320
09:00+7ссв597992 0.1 1017993
12:00+6ссв499097 0.4 1017592
15:00+8ссв4885100 0.5 1017636
18:00+9ссв588181 0.1 1015792
21:00+6ссв499143 0.1 1015338
20 апреля, вт
вт2000:00+7ссв51091100 0.0 1013586
03:00+6ссв4893100 0.1 1011427
06:00+5св479777 0.1 1010272
09:00+7св4893100 0.2 1009499
12:00+10св5780100 0.1 1007820
15:00+11ссв6973100 0.6 10041213
18:00+8с61082100 0.1 1002914
21:00+5ссз71290100 0.1 1001854
21 апреля, ср
ср2100:00+5сз71291100 0.0 1001973
03:00+5зсз71283100 0.0 1001979
06:00+6з71184100 0.1 1002987
09:00+7з8137892 0.1 10041216
12:00+10зюз8115798 0.2 10061832
15:00+11зюз71058100 0.6 10081533
18:00+11зюз5862100 0.4 10091183
21:00+8ююз3778100 0.6 1011129